Location: Cisewo
(53.3833°N, 14.9000°E)
Time: 12:16:18
(UTC+00:00)

NOSS 3-1 (A) - Pass Details

Date: 18 April 2021
Orbit: 733 x 1479 km, 63.4° (Epoch: 01 May)

Event Time Altitude Azimuth Distance (km) Brightness Sun altitude
Rises 21:51:15 0° 312° (NW) 3,834 7.6 -23.8°
Reaches altitude 10° 21:53:43 10° 311° (NW) 2,977 6.8 -24.0°
Maximum altitude 22:00:57 79° 227° (SW) 1,286 3.9 -24.3°
Enters shadow 22:04:04 43° 149° (SSE) 1,786 4.4 -24.4°
